Location: Fort Wayne
(41.1310°N, 85.1290°W)
Time: 22:53:37
(UTC-05:00)

Gbstr 26 Del rocket - Visible Passes

Search period start: 23 February 2017 00:00
Search period end: 05 March 2017 00:00
Orbit: 494 x 1266 km, 51.8° (Epoch: 23 February)

Date Brightness Start Highest point End Pass type
(mag) Time Alt. Az. Time Alt. Az. Time Alt. Az.
23 Feb 2.9 19:35:11 10° SSW 19:38:53 49° SE 19:40:27 29° E visible
23 Feb 5.8 21:22:32 10° W 21:23:03 13° W 21:23:03 13° W visible
24 Feb 2.6 19:30:49 10° SW 19:34:37 67° SE 19:36:53 22° ENE visible
24 Feb 5.6 21:18:35 10° WNW 21:19:29 15° WNW 21:19:29 15° WNW visible
25 Feb 2.5 19:26:31 10° SW 19:30:23 89° SE 19:33:13 17° NE visible
25 Feb 5.5 21:14:38 10° WNW 21:15:48 16° NW 21:15:48 16° NW visible
26 Feb 2.8 19:22:19 10° WSW 19:26:09 69° NW 19:29:29 13° NE visible
26 Feb 5.4 21:10:42 10° WNW 21:12:04 16° NW 21:12:04 16° NW visible
27 Feb 3.3 19:18:09 10° WSW 19:21:57 53° NNW 19:25:37 10° NE visible
27 Feb 5.3 21:06:46 10° NW 21:08:16 16° NNW 21:08:16 16° NNW visible
28 Feb 3.7 19:14:04 10° WSW 19:17:45 42° NNW 19:21:20 10° NE visible
28 Feb 5.2 21:02:48 10° NW 21:04:24 16° NNW 21:04:24 16° NNW visible
01 Mar 4.0 19:10:01 10° W 19:13:35 34° NNW 19:17:02 10° NE visible
01 Mar 5.2 20:58:49 10° NW 21:00:29 16° NNW 21:00:29 16° NNW visible
02 Mar 4.3 19:06:01 10° W 19:09:26 29° NNW 19:12:45 10° NE visible
02 Mar 5.1 20:54:47 10° NW 20:56:32 16° NNW 20:56:32 16° NNW visible
03 Mar 4.5 19:02:03 10° WNW 19:05:18 25° NNW 19:08:27 10° NE visible
03 Mar 5.0 20:50:41 10° NW 20:52:34 16° N 20:52:34 16° N visible
04 Mar 4.6 18:58:06 10° WNW 19:01:11 22° NNW 19:04:11 10° NE visible
04 Mar 4.9 20:46:33 10° NW 20:48:34 17° N 20:48:34 17° N visible
